Regional Weather Roundup
Issued by NWS Cleveland, OH

Home | Current Version | Previous Version | Graphics & Text | Print | Product List | Glossary On
Versions: 1 2 3 4 5 6 7 8 9 10 11 12 13 14 15 16 17 18 19 20 21 22 23 24 25 26 27 28 29 30 31 32 33 34 35 36 37 38 39 40 41 42 43 44 45 46 47 48 49 50
000
ASUS41 KCLE 240500
RWRCLE
OHIO REGIONAL WEATHER ROUNDUP
NATIONAL WEATHER SERVICE WILMINGTON, OH
1200 AM EST MON NOV 24 2014

NOTE: "FAIR" INDICATES FEW OR NO CLOUDS BELOW 12,000 FEET WITH NO
SIGNIFICANT WEATHER AND/OR OBSTRUCTIONS TO VISIBILITY.

OHZ001>008-015>018-024>027-034-035-043-044-240600-
   NORTHWEST OHIO

CITY           SKY/WX    TMP DP  RH WIND       PRES   REMARKS
DEFIANCE       LGT RAIN  55  52  89 S13G31    29.17F
FINDLAY        CLOUDY    57  52  83 S25G31    29.22F
TOLEDO EXPRESS LGT RAIN  53  52  96 S14G21    29.20F
TOLEDO METCALF LGT RAIN  55  52  89 S25G32    29.22F
LIMA           CLOUDY    56  53  90 S24G32    29.21F
$$

OHZ009>014-019>023-028>033-038-089-240600-
   NORTHEAST OHIO

CITY           SKY/WX    TMP DP  RH WIND       PRES   REMARKS
CLE-HOPKINS    LGT RAIN  54  51  90 SE20G28   29.35F
CLE-LAKEFRONT  LGT RAIN  55  50  83 SE20G35   29.31F
CUY CO. ARPT   NOT AVBL
LORAIN-ELYRIA  LGT RAIN  53  51  93 S22G33    29.31F
ASHTABULA      RAIN      50  47  89 SE15G25   29.42F
AKRON-CANTON   LGT RAIN  54  51  90 S17G25    29.39F FOG
WOOSTER        NOT AVBL
MANSFIELD      LGT RAIN  55  53  93 SE26G35   29.31F FOG
YOUNGSTOWN     LGT RAIN  51  49  92 SE20G36   29.41F
$$

OHZ042-051>053-060>062-070>072-077>081-240600-
  SOUTHWEST OHIO

CITY           SKY/WX    TMP DP  RH WIND       PRES   REMARKS
CINC-COVINGTON LGT RAIN  59  53  80 S21G29    29.28F
CINC-LUNKEN    CLOUDY    58 N/A N/A S16       29.29F
HAMILTON       LGT RAIN  58  55  90 S10G24    29.27F
DAYTON         NOT AVBL
WRIGHT-PAT AFB NOT AVBL
DAYTON GENERAL LGT RAIN  58  55  90 S20G29    29.26F
WILMINGTON     LGT RAIN  57  53  86 S18G31    29.29F
$$

OHZ036-037-039>041-045>050-054>059-063>069-073>076-082>088-240600-
  CENTRAL AND SOUTHEAST OHIO

CITY           SKY/WX    TMP DP  RH WIND       PRES   REMARKS
COLUMBUS       CLOUDY    58  52  80 S16G31    29.33F
OSU AIRPORT    CLOUDY    57  53  86 S23G31    29.31F
BOLTON FIELD   NOT AVBL
RICKENBACK AFB NOT AVBL
NEWARK         CLOUDY    58  52  80 S16G26    29.35F
MARION         LGT RAIN  56  52  86 S24G33    29.29F
LANCASTER      CLOUDY    59  53  80 S23G38    29.35F
ZANESVILLE     CLOUDY    55  51  86 S16G26    29.40F
NEW PHILLY     LGT RAIN  54  52  93 SE13      29.41F FOG
$$


USA.gov is the U.S. government's official web portal to all federal, state and local government web resources and services.